Precipitable_Water
0.12 0.12 0.12 0.12 0.13 0.13 0.13 0.13 0.13 0.13 0.13 0.13 0.11 0.10 0.09 0.09 0.09 0.09 0.10 0.10 0.10 0.09 0.09 0.09 0.09 0.09 0.09 0.09 0.08 0.09 0.09 0.10 0.10 0.10 0.10 0.10 0.11 0.11 0.13 0.14 0.16 0.17 0.17 0.19 0.20 0.21 0.20 0.22 0.26 0.31 0.35 0.39 0.41 0.43 0.50 0.56 0.64 0.68 0.72 0.76 0.77 0.77 0.80 0.83 0.85 0.88 0.81 0.74 0.78 0.78 0.79 0.80 0.80 0.82 0.82 0.82 0.81 0.82 0.85 0.86 0.89 0.92 0.95 0.97 1.02
0.11 0.11 0.12 0.13 0.13 0.13 0.13 0.13 0.13 0.12 0.12 0.12 0.11 0.10 0.10 0.10 0.09 0.09 0.10 0.10 0.10 0.10 0.10 0.10 0.09 0.09 0.09 0.09 0.09 0.09 0.09 0.09 0.09 0.10 0.10 0.11 0.11 0.11 0.11 0.13 0.14 0.15 0.17 0.18 0.19 0.19 0.20 0.21 0.22 0.26 0.30 0.34 0.38 0.41 0.44 0.51 0.56 0.63 0.66 0.69 0.74 0.74 0.75 0.79 0.79 0.81 0.77 0.73 0.71 0.72 0.74 0.77 0.78 0.79 0.80 0.80 0.80 0.79 0.82 0.85 0.87 0.87 0.88 0.92 0.96
0.11 0.11 0.12 0.12 0.13 0.13 0.13 0.13 0.13 0.13 0.12 0.11 0.11 0.10 0.10 0.10 0.10 0.10 0.11 0.11 0.11 0.11 0.11 0.10 0.10 0.10 0.10 0.10 0.10 0.10 0.11 0.11 0.10 0.10 0.11 0.11 0.11 0.11 0.11 0.12 0.12 0.13 0.15 0.17 0.17 0.18 0.19 0.20 0.21 0.22 0.26 0.30 0.33 0.37 0.40 0.45 0.51 0.56 0.61 0.62 0.66 0.70 0.73 0.77 0.76 0.76 0.71 0.75 0.75 0.72 0.68 0.67 0.74 0.76 0.78 0.79 0.79 0.78 0.78 0.81 0.84 0.85 0.85 0.89 0.89
0.11 0.11 0.11 0.12 0.12 0.13 0.13 0.13 0.13 0.13 0.12 0.11 0.11 0.10 0.10 0.10 0.10 0.11 0.11 0.11 0.11 0.12 0.11 0.11 0.11 0.11 0.11 0.11 0.11 0.11 0.10 0.11 0.11 0.11 0.11 0.10 0.10 0.11 0.11 0.11 0.11 0.12 0.14 0.15 0.16 0.17 0.18 0.19 0.20 0.21 0.23 0.27 0.30 0.31 0.35 0.39 0.46 0.50 0.54 0.58 0.61 0.61 0.65 0.69 0.73 0.73 0.73 0.69 0.62 0.65 0.65 0.66 0.61 0.65 0.69 0.74 0.78 0.79 0.77 0.77 0.82 0.82 0.83 0.84 0.85
0.11 0.11 0.11 0.11 0.12 0.12 0.12 0.13 0.13 0.12 0.12 0.12 0.11 0.11 0.11 0.11 0.11 0.11 0.11 0.11 0.11 0.11 0.11 0.11 0.11 0.11 0.11 0.11 0.11 0.11 0.11 0.11 0.10 0.10 0.10 0.10 0.10 0.10 0.10 0.11 0.11 0.11 0.12 0.13 0.15 0.16 0.18 0.18 0.19 0.20 0.21 0.23 0.27 0.29 0.31 0.35 0.40 0.46 0.50 0.53 0.57 0.57 0.59 0.63 0.67 0.70 0.71 0.72 0.65 0.63 0.59 0.58 0.58 0.62 0.69 0.70 0.76 0.74 0.76 0.75 0.78 0.79 0.78 0.78 0.79
0.12 0.11 0.11 0.12 0.12 0.12 0.13 0.13 0.13 0.13 0.12 0.13 0.12 0.12 0.11 0.11 0.11 0.11 0.11 0.11 0.11 0.11 0.11 0.11 0.10 0.10 0.09 0.09 0.08 0.09 0.09 0.09 0.09 0.09 0.09 0.10 0.10 0.11 0.11 0.11 0.11 0.11 0.12 0.12 0.13 0.15 0.16 0.18 0.18 0.19 0.19 0.21 0.23 0.27 0.30 0.31 0.34 0.40 0.46 0.50 0.53 0.56 0.56 0.58 0.60 0.66 0.68 0.69 0.70 0.68 0.64 0.58 0.57 0.61 0.63 0.58 0.71 0.75 0.74 0.75 0.74 0.78 0.77 0.75 0.74
0.13 0.12 0.12 0.12 0.12 0.12 0.13 0.13 0.13 0.13 0.13 0.14 0.13 0.12 0.12 0.12 0.12 0.12 0.12 0.11 0.12 0.11 0.12 0.11 0.10 0.10 0.10 0.10 0.09 0.09 0.09 0.09 0.10 0.10 0.10 0.10 0.11 0.10 0.11 0.11 0.11 0.11 0.11 0.12 0.12 0.13 0.15 0.17 0.17 0.18 0.19 0.19 0.20 0.23 0.27 0.29 0.31 0.34 0.41 0.46 0.49 0.52 0.54 0.53 0.55 0.58 0.62 0.64 0.64 0.66 0.68 0.68 0.65 0.59 0.56 0.60 0.57 0.66 0.72 0.71 0.71 0.75 0.76 0.76 0.74
0.12 0.12 0.12 0.12 0.12 0.13 0.13 0.14 0.14 0.14 0.15 0.15 0.14 0.13 0.12 0.12 0.12 0.12 0.12 0.12 0.12 0.12 0.12 0.11 0.10 0.10 0.10 0.10 0.10 0.10 0.09 0.09 0.10 0.10 0.11 0.11 0.11 0.10 0.11 0.11 0.11 0.11 0.11 0.11 0.12 0.12 0.13 0.15 0.16 0.17 0.18 0.19 0.20 0.19 0.22 0.27 0.29 0.31 0.34 0.41 0.46 0.48 0.49 0.50 0.52 0.55 0.54 0.55 0.60 0.62 0.64 0.66 0.65 0.63 0.60 0.57 0.55 0.56 0.62 0.70 0.71 0.72 0.74 0.76 0.75
0.12 0.12 0.12 0.12 0.13 0.13 0.14 0.14 0.15 0.16 0.16 0.16 0.15 0.14 0.13 0.13 0.13 0.13 0.13 0.13 0.13 0.12 0.12 0.11 0.11 0.10 0.10 0.10 0.10 0.10 0.10 0.10 0.11 0.11 0.10 0.10 0.10 0.10 0.10 0.10 0.10 0.11 0.11 0.11 0.11 0.12 0.12 0.13 0.15 0.16 0.17 0.18 0.20 0.19 0.19 0.23 0.27 0.29 0.30 0.34 0.41 0.45 0.47 0.48 0.49 0.50 0.52 0.53 0.55 0.56 0.59 0.61 0.62 0.62 0.60 0.58 0.54 0.51 0.54 0.60 0.64 0.68 0.69 0.70 0.71
0.13 0.13 0.13 0.13 0.13 0.14 0.15 0.16 0.16 0.16 0.17 0.18 0.16 0.15 0.14 0.14 0.13 0.13 0.13 0.13 0.13 0.13 0.13 0.12 0.11 0.11 0.11 0.10 0.10 0.10 0.11 0.11 0.11 0.10 0.10 0.10 0.10 0.10 0.10 0.10 0.10 0.10 0.10 0.11 0.11 0.12 0.12 0.12 0.13 0.15 0.16 0.18 0.19 0.19 0.19 0.20 0.23 0.26 0.29 0.30 0.34 0.40 0.44 0.45 0.47 0.48 0.50 0.52 0.53 0.53 0.53 0.55 0.57 0.58 0.57 0.55 0.53 0.51 0.47 0.49 0.52 0.57 0.58 0.63 0.67
0.13 0.13 0.14 0.14 0.14 0.15 0.16 0.16 0.16 0.17 0.18 0.18 0.16 0.15 0.14 0.14 0.14 0.13 0.13 0.13 0.14 0.13 0.13 0.12 0.12 0.11 0.11 0.11 0.11 0.11 0.11 0.11 0.10 0.10 0.10 0.10 0.09 0.09 0.10 0.10 0.10 0.10 0.10 0.10 0.11 0.11 0.11 0.12 0.12 0.13 0.14 0.16 0.18 0.18 0.19 0.19 0.20 0.23 0.26 0.29 0.29 0.34 0.39 0.42 0.44 0.46 0.47 0.49 0.50 0.51 0.51 0.52 0.51 0.51 0.53 0.55 0.54 0.50 0.47 0.45 0.46 0.49 0.51 0.52 0.58
0.14 0.14 0.14 0.14 0.15 0.15 0.16 0.16 0.16 0.17 0.18 0.18 0.16 0.15 0.15 0.14 0.14 0.13 0.13 0.14 0.13 0.14 0.13 0.12 0.12 0.12 0.12 0.12 0.11 0.11 0.11 0.11 0.11 0.10 0.10 0.10 0.10 0.10 0.10 0.10 0.10 0.10 0.10 0.10 0.11 0.11 0.11 0.11 0.11 0.12 0.12 0.14 0.16 0.18 0.19 0.19 0.19 0.20 0.23 0.25 0.27 0.30 0.34 0.37 0.40 0.41 0.43 0.45 0.47 0.49 0.50 0.51 0.51 0.51 0.52 0.54 0.53 0.53 0.51 0.49 0.46 0.44 0.45 0.49 0.52
0.14 0.14 0.14 0.14 0.14 0.15 0.15 0.16 0.16 0.17 0.17 0.17 0.16 0.16 0.15 0.14 0.14 0.14 0.13 0.14 0.14 0.14 0.13 0.13 0.12 0.12 0.12 0.12 0.12 0.12 0.12 0.12 0.11 0.11 0.11 0.10 0.10 0.10 0.10 0.10 0.10 0.10 0.10 0.10 0.11 0.11 0.11 0.10 0.10 0.11 0.11 0.12 0.14 0.16 0.17 0.19 0.19 0.19 0.19 0.22 0.25 0.26 0.29 0.33 0.36 0.38 0.40 0.41 0.43 0.46 0.48 0.49 0.49 0.51 0.52 0.52 0.54 0.55 0.53 0.50 0.50 0.47 0.43 0.43 0.46
0.14 0.15 0.14 0.14 0.15 0.15 0.16 0.16 0.16 0.17 0.18 0.18 0.17 0.16 0.15 0.15 0.14 0.14 0.14 0.14 0.14 0.14 0.13 0.13 0.13 0.13 0.13 0.13 0.12 0.12 0.12 0.12 0.12 0.11 0.11 0.11 0.11 0.11 0.10 0.10 0.10 0.10 0.10 0.10 0.11 0.11 0.11 0.10 0.10 0.10 0.11 0.12 0.12 0.13 0.15 0.17 0.19 0.19 0.18 0.19 0.21 0.24 0.26 0.29 0.33 0.36 0.37 0.39 0.42 0.43 0.44 0.46 0.47 0.50 0.50 0.50 0.50 0.51 0.50 0.50 0.50 0.49 0.47 0.43 0.43
0.15 0.15 0.15 0.14 0.15 0.15 0.16 0.17 0.17 0.17 0.17 0.18 0.17 0.16 0.15 0.15 0.15 0.14 0.14 0.15 0.14 0.14 0.14 0.13 0.13 0.13 0.13 0.13 0.13 0.13 0.12 0.12 0.12 0.12 0.12 0.12 0.12 0.11 0.11 0.11 0.10 0.10 0.10 0.10 0.11 0.11 0.11 0.10 0.10 0.10 0.10 0.10 0.11 0.12 0.13 0.15 0.17 0.19 0.19 0.18 0.19 0.21 0.23 0.26 0.28 0.32 0.35 0.36 0.38 0.40 0.42 0.43 0.45 0.47 0.48 0.48 0.49 0.49 0.50 0.50 0.50 0.47 0.46 0.47 0.43
0.14 0.14 0.15 0.15 0.15 0.16 0.17 0.18 0.18 0.17 0.18 0.18 0.17 0.16 0.15 0.15 0.15 0.15 0.15 0.15 0.15 0.14 0.14 0.14 0.13 0.13 0.13 0.13 0.13 0.13 0.13 0.13 0.12 0.12 0.12 0.12 0.12 0.11 0.11 0.11 0.11 0.11 0.11 0.11 0.11 0.11 0.11 0.10 0.10 0.10 0.10 0.10 0.10 0.10 0.11 0.12 0.14 0.16 0.17 0.18 0.18 0.20 0.21 0.22 0.24 0.28 0.31 0.34 0.36 0.38 0.39 0.40 0.43 0.44 0.45 0.46 0.47 0.48 0.49 0.51 0.51 0.49 0.46 0.43 0.46
0.14 0.14 0.15 0.15 0.16 0.17 0.18 0.18 0.18 0.18 0.18 0.18 0.17 0.16 0.15 0.15 0.15 0.15 0.15 0.15 0.15 0.14 0.14 0.14 0.14 0.13 0.13 0.14 0.14 0.13 0.13 0.13 0.12 0.12 0.12 0.12 0.12 0.11 0.11 0.11 0.11 0.11 0.11 0.11 0.11 0.11 0.11 0.11 0.10 0.10 0.10 0.10 0.09 0.09 0.10 0.11 0.12 0.14 0.15 0.16 0.17 0.18 0.19 0.21 0.22 0.24 0.27 0.30 0.33 0.35 0.36 0.38 0.40 0.42 0.43 0.44 0.45 0.46 0.47 0.49 0.50 0.49 0.48 0.46 0.44
0.14 0.15 0.15 0.16 0.16 0.17 0.18 0.19 0.18 0.18 0.18 0.18 0.17 0.16 0.16 0.16 0.15 0.15 0.15 0.15 0.15 0.15 0.15 0.14 0.14 0.14 0.14 0.14 0.14 0.14 0.13 0.13 0.13 0.13 0.12 0.12 0.12 0.11 0.11 0.11 0.11 0.11 0.11 0.11 0.12 0.12 0.12 0.11 0.11 0.10 0.10 0.10 0.10 0.09 0.10 0.10 0.11 0.12 0.13 0.15 0.16 0.17 0.18 0.19 0.21 0.22 0.24 0.27 0.30 0.32 0.34 0.35 0.37 0.39 0.40 0.42 0.43 0.43 0.45 0.46 0.48 0.49 0.50 0.46 0.47
0.14 0.15 0.15 0.16 0.17 0.17 0.18 0.18 0.19 0.19 0.19 0.18 0.17 0.16 0.16 0.16 0.16 0.15 0.15 0.15 0.15 0.15 0.15 0.15 0.15 0.14 0.14 0.14 0.14 0.14 0.14 0.13 0.13 0.13 0.12 0.12 0.11 0.11 0.11 0.11 0.12 0.12 0.12 0.12 0.12 0.12 0.11 0.11 0.11 0.10 0.10 0.10 0.10 0.10 0.10 0.10 0.11 0.11 0.12 0.14 0.15 0.16 0.17 0.18 0.20 0.21 0.21 0.23 0.26 0.28 0.31 0.33 0.34 0.36 0.38 0.39 0.41 0.42 0.43 0.45 0.45 0.47 0.48 0.48 0.47
0.14 0.14 0.15 0.16 0.16 0.17 0.17 0.18 0.19 0.19 0.19 0.18 0.17 0.16 0.16 0.16 0.16 0.16 0.15 0.15 0.15 0.15 0.15 0.15 0.15 0.15 0.15 0.15 0.15 0.14 0.14 0.13 0.13 0.12 0.12 0.12 0.11 0.11 0.11 0.11 0.12 0.12 0.12 0.12 0.12 0.12 0.11 0.11 0.10 0.10 0.10 0.10 0.10 0.10 0.10 0.10 0.11 0.11 0.12 0.13 0.13 0.15 0.15 0.16 0.17 0.19 0.20 0.21 0.22 0.25 0.27 0.29 0.32 0.33 0.35 0.36 0.38 0.40 0.41 0.42 0.43 0.44 0.45 0.47 0.48
0.14 0.14 0.15 0.15 0.16 0.17 0.18 0.19 0.19 0.19 0.19 0.18 0.17 0.16 0.16 0.16 0.16 0.16 0.15 0.15 0.15 0.15 0.15 0.15 0.15 0.15 0.15 0.15 0.15 0.14 0.14 0.13 0.13 0.12 0.12 0.12 0.12 0.12 0.12 0.12 0.12 0.12 0.12 0.11 0.11 0.11 0.11 0.10 0.10 0.10 0.10 0.10 0.10 0.10 0.11 0.10 0.10 0.10 0.11 0.12 0.12 0.13 0.14 0.14 0.15 0.17 0.18 0.19 0.20 0.21 0.24 0.26 0.29 0.31 0.32 0.34 0.35 0.37 0.38 0.40 0.42 0.42 0.42 0.44 0.45
0.14 0.14 0.15 0.15 0.16 0.17 0.18 0.19 0.19 0.18 0.18 0.17 0.17 0.16 0.16 0.16 0.16 0.16 0.15 0.15 0.15 0.15 0.15 0.15 0.15 0.15 0.15 0.15 0.15 0.15 0.14 0.13 0.12 0.12 0.12 0.12 0.12 0.12 0.12 0.12 0.11 0.11 0.11 0.11 0.11 0.11 0.11 0.10 0.10 0.10 0.10 0.10 0.10 0.10 0.10 0.10 0.10 0.10 0.10 0.11 0.12 0.12 0.13 0.14 0.15 0.15 0.16 0.17 0.18 0.19 0.21 0.23 0.25 0.27 0.30 0.31 0.33 0.34 0.36 0.37 0.38 0.40 0.40 0.41 0.43
0.14 0.15 0.15 0.16 0.17 0.17 0.18 0.18 0.18 0.18 0.18 0.17 0.17 0.16 0.16 0.16 0.16 0.16 0.15 0.15 0.15 0.15 0.15 0.15 0.15 0.15 0.15 0.15 0.15 0.14 0.14 0.13 0.12 0.12 0.12 0.12 0.12 0.12 0.11 0.11 0.11 0.11 0.11 0.11 0.11 0.11 0.11 0.11 0.10 0.10 0.10 0.09 0.09 0.10 0.10 0.10 0.10 0.10 0.10 0.11 0.11 0.12 0.12 0.13 0.13 0.14 0.15 0.16 0.17 0.17 0.19 0.20 0.22 0.24 0.26 0.28 0.31 0.32 0.34 0.35 0.36 0.37 0.38 0.40 0.41
0.14 0.15 0.16 0.16 0.17 0.18 0.18 0.18 0.18 0.18 0.18 0.17 0.17 0.17 0.17 0.17 0.16 0.16 0.15 0.15 0.16 0.16 0.16 0.16 0.16 0.16 0.16 0.15 0.15 0.14 0.13 0.12 0.12 0.12 0.12 0.12 0.12 0.11 0.11 0.11 0.11 0.11 0.11 0.11 0.11 0.11 0.11 0.10 0.10 0.10 0.09 0.09 0.10 0.10 0.10 0.10 0.10 0.10 0.10 0.10 0.11 0.11 0.11 0.12 0.13 0.13 0.14 0.14 0.15 0.16 0.17 0.19 0.20 0.21 0.23 0.25 0.27 0.29 0.31 0.33 0.34 0.35 0.36 0.38 0.39
0.14 0.15 0.16 0.16 0.17 0.18 0.18 0.18 0.18 0.18 0.18 0.17 0.17 0.17 0.17 0.17 0.16 0.16 0.16 0.16 0.16 0.16 0.16 0.16 0.16 0.16 0.15 0.15 0.14 0.14 0.13 0.12 0.12 0.12 0.12 0.12 0.11 0.11 0.11 0.11 0.10 0.10 0.11 0.11 0.10 0.10 0.10 0.10 0.09 0.09 0.10 0.10 0.10 0.10 0.10 0.10 0.10 0.10 0.10 0.10 0.11 0.11 0.11 0.12 0.13 0.13 0.14 0.14 0.14 0.15 0.16 0.18 0.19 0.19 0.20 0.22 0.24 0.26 0.28 0.30 0.31 0.33 0.34 0.35 0.36
0.14 0.15 0.16 0.16 0.17 0.18 0.19 0.18 0.18 0.18 0.18 0.17 0.17 0.17 0.17 0.17 0.17 0.17 0.16 0.16 0.16 0.17 0.16 0.16 0.16 0.16 0.15 0.14 0.14 0.13 0.13 0.12 0.12 0.12 0.12 0.11 0.11 0.11 0.10 0.10 0.10 0.10 0.10 0.10 0.10 0.09 0.09 0.09 0.09 0.10 0.10 0.10 0.10 0.10 0.09 0.09 0.10 0.10 0.10 0.11 0.11 0.11 0.11 0.12 0.12 0.12 0.13 0.14 0.14 0.14 0.15 0.16 0.17 0.18 0.18 0.20 0.21 0.23 0.25 0.27 0.29 0.30 0.32 0.33 0.34
0.14 0.15 0.16 0.17 0.17 0.18 0.19 0.19 0.19 0.18 0.18 0.18 0.18 0.17 0.17 0.17 0.17 0.17 0.17 0.17 0.17 0.17 0.17 0.16 0.16 0.16 0.15 0.14 0.14 0.13 0.12 0.12 0.12 0.12 0.11 0.11 0.11 0.10 0.10 0.09 0.10 0.10 0.10 0.09 0.09 0.09 0.09 0.09 0.10 0.10 0.10 0.10 0.09 0.09 0.09 0.09 0.10 0.10 0.10 0.11 0.11 0.11 0.11 0.11 0.11 0.11 0.12 0.13 0.14 0.14 0.15 0.15 0.16 0.17 0.17 0.18 0.19 0.20 0.22 0.23 0.26 0.28 0.30 0.31 0.32
0.15 0.15 0.16 0.16 0.17 0.18 0.19 0.19 0.19 0.18 0.18 0.18 0.18 0.18 0.17 0.17 0.17 0.17 0.17 0.17 0.17 0.17 0.17 0.16 0.16 0.15 0.14 0.14 0.13 0.13 0.12 0.12 0.12 0.11 0.11 0.11 0.10 0.10 0.10 0.10 0.10 0.09 0.09 0.09 0.09 0.09 0.09 0.10 0.10 0.10 0.10 0.10 0.09 0.09 0.09 0.09 0.10 0.10 0.10 0.11 0.11 0.10 0.11 0.10 0.10 0.11 0.11 0.12 0.13 0.14 0.14 0.15 0.15 0.15 0.16 0.17 0.18 0.18 0.19 0.21 0.23 0.25 0.27 0.28 0.29
0.14 0.15 0.16 0.17 0.17 0.19 0.19 0.19 0.19 0.18 0.18 0.18 0.18 0.18 0.18 0.18 0.18 0.18 0.17 0.17 0.17 0.17 0.17 0.16 0.15 0.15 0.14 0.14 0.13 0.12 0.12 0.12 0.11 0.11 0.11 0.10 0.10 0.10 0.10 0.10 0.09 0.09 0.09 0.09 0.09 0.09 0.10 0.10 0.10 0.10 0.09 0.09 0.09 0.09 0.09 0.09 0.09 0.10 0.10 0.10 0.10 0.10 0.10 0.10 0.10 0.11 0.11 0.12 0.12 0.13 0.13 0.14 0.15 0.15 0.15 0.16 0.17 0.18 0.18 0.18 0.20 0.22 0.23 0.25 0.27
0.15 0.15 0.16 0.17 0.18 0.19 0.19 0.19 0.19 0.18 0.18 0.18 0.18 0.18 0.18 0.18 0.18 0.18 0.17 0.17 0.17 0.17 0.16 0.16 0.15 0.14 0.14 0.13 0.13 0.12 0.12 0.11 0.11 0.11 0.10 0.10 0.10 0.10 0.09 0.09 0.09 0.09 0.09 0.09 0.09 0.10 0.10 0.09 0.09 0.09 0.09 0.09 0.09 0.09 0.09 0.09 0.09 0.10 0.10 0.10 0.10 0.10 0.11 0.11 0.11 0.11 0.11 0.12 0.12 0.13 0.13 0.14 0.14 0.14 0.15 0.15 0.16 0.16 0.17 0.18 0.19 0.20 0.21 0.22 0.24
0.15 0.15 0.16 0.17 0.19 0.19 0.19 0.19 0.19 0.18 0.18 0.18 0.18 0.18 0.18 0.18 0.18 0.18 0.18 0.18 0.17 0.16 0.16 0.15 0.14 0.14 0.14 0.13 0.12 0.12 0.12 0.11 0.11 0.10 0.10 0.09 0.09 0.09 0.09 0.09 0.09 0.09 0.09 0.09 0.10 0.09 0.09 0.09 0.09 0.09 0.09 0.09 0.09 0.09 0.09 0.10 0.10 0.11 0.11 0.11 0.11 0.11 0.11 0.11 0.11 0.11 0.11 0.11 0.12 0.13 0.13 0.14 0.14 0.14 0.14 0.14 0.15 0.15 0.16 0.17 0.18 0.19 0.20 0.21 0.21
0.15 0.15 0.16 0.18 0.19 0.19 0.19 0.19 0.19 0.18 0.18 0.18 0.18 0.18 0.18 0.18 0.18 0.18 0.18 0.18 0.17 0.16 0.15 0.15 0.14 0.14 0.13 0.12 0.12 0.12 0.11 0.11 0.10 0.10 0.09 0.09 0.09 0.09 0.09 0.09 0.08 0.08 0.09 0.09 0.09 0.09 0.09 0.09 0.09 0.09 0.08 0.08 0.08 0.09 0.09 0.10 0.11 0.11 0.11 0.11 0.11 0.11 0.11 0.11 0.11 0.11 0.11 0.11 0.11 0.12 0.13 0.13 0.13 0.13 0.14 0.14 0.14 0.14 0.15 0.16 0.16 0.17 0.18 0.19 0.21
0.15 0.16 0.17 0.19 0.19 0.19 0.19 0.19 0.19 0.18 0.18 0.18 0.18 0.18 0.18 0.18 0.18 0.18 0.18 0.17 0.16 0.16 0.15 0.14 0.14 0.13 0.13 0.12 0.12 0.11 0.11 0.10 0.10 0.10 0.09 0.09 0.09 0.09 0.08 0.08 0.08 0.09 0.09 0.09 0.09 0.09 0.08 0.08 0.08 0.08 0.08 0.08 0.08 0.09 0.09 0.10 0.11 0.11 0.12 0.12 0.12 0.12 0.11 0.11 0.11 0.11 0.11 0.11 0.11 0.11 0.11 0.12 0.12 0.12 0.12 0.13 0.14 0.15 0.15 0.15 0.15 0.16 0.16 0.17 0.18
0.16 0.18 0.19 0.20 0.19 0.19 0.19 0.19 0.19 0.18 0.18 0.19 0.19 0.18 0.19 0.19 0.18 0.18 0.17 0.16 0.16 0.15 0.14 0.14 0.13 0.13 0.13 0.12 0.11 0.11 0.10 0.10 0.10 0.09 0.09 0.09 0.09 0.08 0.09 0.09 0.09 0.09 0.09 0.08 0.08 0.08 0.08 0.08 0.08 0.08 0.08 0.08 0.09 0.09 0.09 0.10 0.11 0.11 0.12 0.12 0.12 0.12 0.11 0.12 0.12 0.12 0.11 0.11 0.11 0.11 0.11 0.11 0.12 0.13 0.13 0.13 0.13 0.13 0.13 0.14 0.14 0.14 0.14 0.15 0.16
0.18 0.19 0.19 0.19 0.19 0.19 0.19 0.19 0.18 0.18 0.18 0.19 0.19 0.19 0.19 0.18 0.18 0.17 0.17 0.16 0.15 0.14 0.14 0.13 0.13 0.13 0.12 0.12 0.11 0.10 0.10 0.10 0.09 0.09 0.09 0.09 0.09 0.09 0.09 0.09 0.09 0.09 0.08 0.08 0.08 0.08 0.08 0.08 0.08 0.08 0.08 0.08 0.09 0.09 0.10 0.10 0.11 0.11 0.12 0.12 0.12 0.12 0.12 0.11 0.12 0.12 0.12 0.12 0.12 0.12 0.12 0.12 0.12 0.12 0.13 0.13 0.13 0.13 0.13 0.13 0.13 0.13 0.13 0.14 0.14
0.19 0.19 0.19 0.19 0.19 0.19 0.18 0.18 0.18 0.18 0.19 0.19 0.19 0.19 0.18 0.18 0.18 0.17 0.16 0.15 0.15 0.14 0.13 0.13 0.13 0.12 0.12 0.11 0.11 0.10 0.10 0.09 0.09 0.09 0.09 0.09 0.09 0.09 0.08 0.09 0.09 0.09 0.08 0.08 0.08 0.08 0.08 0.08 0.08 0.08 0.08 0.08 0.08 0.09 0.10 0.10 0.11 0.11 0.12 0.11 0.11 0.11 0.11 0.11 0.11 0.11 0.11 0.11 0.11 0.11 0.11 0.11 0.11 0.11 0.11 0.12 0.12 0.12 0.12 0.12 0.12 0.13 0.13 0.13 0.14
0.19 0.20 0.19 0.19 0.19 0.19 0.19 0.19 0.18 0.18 0.19 0.19 0.19 0.18 0.18 0.17 0.17 0.16 0.15 0.15 0.14 0.14 0.13 0.13 0.12 0.12 0.11 0.11 0.10 0.10 0.09 0.09 0.09 0.09 0.09 0.09 0.09 0.09 0.09 0.09 0.09 0.08 0.08 0.08 0.08 0.08 0.08 0.08 0.08 0.08 0.08 0.08 0.08 0.09 0.09 0.10 0.11 0.11 0.11 0.11 0.11 0.11 0.11 0.11 0.11 0.11 0.11 0.11 0.11 0.11 0.11 0.11 0.11 0.11 0.11 0.12 0.13 0.13 0.12 0.12 0.12 0.11 0.12 0.12 0.12
0.20 0.20 0.20 0.20 0.20 0.19 0.19 0.19 0.19 0.19 0.19 0.19 0.19 0.18 0.17 0.16 0.16 0.16 0.15 0.14 0.14 0.13 0.13 0.12 0.12 0.11 0.11 0.11 0.10 0.10 0.09 0.09 0.09 0.09 0.09 0.09 0.09 0.09 0.09 0.09 0.08 0.08 0.08 0.08 0.08 0.08 0.08 0.08 0.08 0.08 0.08 0.08 0.08 0.09 0.09 0.10 0.10 0.11 0.11 0.11 0.11 0.11 0.10 0.11 0.11 0.11 0.11 0.11 0.11 0.12 0.12 0.11 0.11 0.11 0.11 0.12 0.12 0.13 0.12 0.12 0.12 0.12 0.11 0.12 0.12
0.20 0.20 0.20 0.20 0.20 0.20 0.19 0.19 0.19 0.18 0.19 0.19 0.18 0.17 0.16 0.16 0.15 0.15 0.15 0.14 0.13 0.13 0.12 0.12 0.11 0.11 0.11 0.11 0.10 0.10 0.09 0.09 0.09 0.09 0.09 0.09 0.09 0.09 0.09 0.09 0.09 0.08 0.08 0.08 0.08 0.08 0.08 0.08 0.08 0.08 0.08 0.08 0.08 0.09 0.09 0.09 0.10 0.11 0.11 0.11 0.11 0.10 0.10 0.10 0.10 0.11 0.11 0.11 0.11 0.12 0.12 0.12 0.12 0.12 0.12 0.12 0.13 0.13 0.12 0.12 0.12 0.11 0.11 0.11 0.11
0.21 0.21 0.21 0.21 0.20 0.20 0.19 0.19 0.18 0.18 0.19 0.18 0.18 0.17 0.16 0.15 0.15 0.15 0.14 0.13 0.13 0.13 0.12 0.12 0.11 0.11 0.11 0.10 0.10 0.10 0.09 0.09 0.09 0.09 0.09 0.09 0.09 0.09 0.09 0.09 0.08 0.08 0.08 0.08 0.08 0.08 0.07 0.08 0.08 0.08 0.08 0.08 0.08 0.08 0.09 0.09 0.10 0.10 0.11 0.11 0.11 0.10 0.10 0.10 0.10 0.10 0.10 0.11 0.11 0.11 0.11 0.11 0.12 0.12 0.12 0.12 0.13 0.13 0.13 0.13 0.13 0.12 0.11 0.11 0.13
0.21 0.21 0.21 0.21 0.20 0.20 0.19 0.19 0.19 0.18 0.18 0.17 0.17 0.16 0.15 0.15 0.14 0.14 0.13 0.13 0.13 0.13 0.12 0.11 0.11 0.11 0.11 0.10 0.10 0.10 0.09 0.09 0.10 0.09 0.09 0.09 0.09 0.09 0.09 0.09 0.08 0.08 0.08 0.08 0.07 0.07 0.07 0.07 0.08 0.08 0.08 0.08 0.08 0.08 0.08 0.09 0.09 0.10 0.11 0.11 0.11 0.10 0.10 0.10 0.10 0.10 0.10 0.10 0.10 0.11 0.11 0.11 0.11 0.12 0.12 0.12 0.12 0.13 0.13 0.13 0.13 0.13 0.13 0.14 0.15
0.22 0.21 0.21 0.20 0.20 0.19 0.19 0.18 0.18 0.18 0.17 0.16 0.16 0.15 0.14 0.14 0.14 0.13 0.13 0.13 0.13 0.12 0.12 0.11 0.11 0.11 0.10 0.10 0.10 0.10 0.10 0.10 0.10 0.10 0.09 0.09 0.09 0.09 0.09 0.08 0.08 0.08 0.08 0.07 0.07 0.07 0.07 0.07 0.07 0.07 0.08 0.08 0.08 0.09 0.08 0.09 0.09 0.10 0.10 0.11 0.11 0.11 0.11 0.11 0.10 0.10 0.10 0.11 0.11 0.11 0.11 0.12 0.12 0.12 0.13 0.13 0.13 0.13 0.13 0.13 0.13 0.13 0.13 0.13 0.13
0.20 0.20 0.20 0.20 0.19 0.18 0.18 0.17 0.17 0.17 0.16 0.16 0.15 0.14 0.14 0.14 0.13 0.13 0.13 0.13 0.12 0.12 0.11 0.11 0.10 0.10 0.10 0.10 0.10 0.10 0.10 0.10 0.10 0.09 0.09 0.09 0.09 0.09 0.08 0.08 0.08 0.08 0.07 0.07 0.07 0.07 0.07 0.07 0.07 0.07 0.07 0.08 0.08 0.08 0.08 0.08 0.09 0.09 0.10 0.10 0.11 0.11 0.11 0.11 0.11 0.10 0.11 0.10 0.11 0.11 0.11 0.12 0.12 0.12 0.12 0.12 0.12 0.13 0.13 0.13 0.13 0.13 0.13 0.13 0.13
0.20 0.19 0.19 0.19 0.18 0.17 0.17 0.17 0.16 0.16 0.15 0.15 0.14 0.14 0.13 0.13 0.12 0.13 0.13 0.12 0.12 0.11 0.11 0.10 0.10 0.10 0.10 0.10 0.10 0.10 0.10 0.10 0.09 0.09 0.09 0.09 0.09 0.08 0.08 0.08 0.08 0.08 0.07 0.07 0.07 0.07 0.06 0.06 0.06 0.07 0.07 0.07 0.08 0.08 0.08 0.09 0.09 0.09 0.10 0.10 0.11 0.11 0.11 0.11 0.11 0.10 0.10 0.11 0.11 0.11 0.11 0.11 0.12 0.12 0.12 0.13 0.13 0.13 0.13 0.13 0.13 0.13 0.13 0.14 0.13
0.18 0.18 0.18 0.18 0.17 0.16 0.16 0.15 0.15 0.15 0.15 0.14 0.14 0.13 0.12 0.12 0.12 0.13 0.12 0.11 0.11 0.11 0.10 0.10 0.10 0.10 0.10 0.10 0.10 0.09 0.09 0.09 0.09 0.09 0.09 0.08 0.08 0.08 0.08 0.08 0.08 0.07 0.07 0.07 0.06 0.06 0.06 0.06 0.06 0.06 0.06 0.07 0.07 0.08 0.08 0.08 0.09 0.09 0.10 0.10 0.10 0.10 0.10 0.10 0.10 0.11 0.11 0.11 0.11 0.11 0.12 0.12 0.12 0.12 0.12 0.13 0.13 0.12 0.13 0.13 0.13 0.13 0.13 0.13 0.12
0.18 0.17 0.17 0.17 0.16 0.16 0.15 0.14 0.14 0.14 0.14 0.14 0.13 0.13 0.12 0.12 0.12 0.12 0.12 0.11 0.11 0.10 0.10 0.10 0.10 0.10 0.09 0.09 0.09 0.09 0.09 0.09 0.09 0.09 0.09 0.08 0.08 0.08 0.08 0.08 0.07 0.07 0.07 0.07 0.06 0.06 0.06 0.06 0.06 0.06 0.06 0.06 0.07 0.07 0.08 0.08 0.08 0.09 0.09 0.09 0.09 0.09 0.09 0.10 0.10 0.11 0.11 0.11 0.11 0.11 0.11 0.11 0.11 0.11 0.11 0.11 0.11 0.12 0.12 0.12 0.12 0.12 0.12 0.12 0.12
0.16 0.16 0.16 0.16 0.15 0.14 0.14 0.13 0.13 0.13 0.13 0.13 0.13 0.12 0.12 0.12 0.12 0.12 0.11 0.11 0.11 0.10 0.10 0.10 0.09 0.09 0.09 0.09 0.09 0.09 0.09 0.09 0.09 0.09 0.08 0.08 0.08 0.08 0.08 0.07 0.07 0.07 0.07 0.06 0.06 0.06 0.06 0.06 0.06 0.06 0.06 0.06 0.07 0.07 0.07 0.08 0.08 0.08 0.08 0.08 0.09 0.09 0.09 0.10 0.10 0.10 0.10 0.10 0.10 0.10 0.11 0.11 0.11 0.12 0.12 0.12 0.12 0.12 0.12 0.12 0.12 0.12 0.12 0.12 0.11
0.16 0.16 0.15 0.15 0.14 0.13 0.13 0.13 0.13 0.13 0.13 0.12 0.12 0.12 0.12 0.12 0.11 0.11 0.11 0.11 0.10 0.10 0.09 0.09 0.09 0.09 0.09 0.09 0.09 0.09 0.08 0.08 0.08 0.08 0.08 0.08 0.08 0.08 0.07 0.07 0.07 0.07 0.06 0.06 0.06 0.06 0.06 0.06 0.06 0.06 0.06 0.06 0.06 0.06 0.07 0.07 0.08 0.08 0.08 0.08 0.08 0.08 0.09 0.09 0.09 0.09 0.10 0.10 0.10 0.10 0.10 0.11 0.11 0.11 0.11 0.11 0.11 0.12 0.12 0.12 0.12 0.11 0.11 0.11 0.11
0.14 0.14 0.14 0.14 0.13 0.13 0.13 0.12 0.12 0.12 0.12 0.12 0.12 0.11 0.11 0.11 0.11 0.11 0.11 0.10 0.10 0.09 0.09 0.09 0.09 0.09 0.09 0.09 0.08 0.08 0.08 0.08 0.08 0.08 0.08 0.08 0.08 0.07 0.07 0.07 0.07 0.07 0.06 0.06 0.06 0.06 0.06 0.06 0.06 0.06 0.06 0.06 0.06 0.06 0.07 0.07 0.07 0.08 0.08 0.08 0.08 0.08 0.08 0.08 0.09 0.09 0.09 0.10 0.10 0.10 0.10 0.10 0.10 0.10 0.10 0.10 0.10 0.11 0.11 0.11 0.11 0.11 0.11 0.11 0.11
0.14 0.14 0.14 0.13 0.13 0.12 0.12 0.12 0.12 0.12 0.12 0.11 0.11 0.11 0.11 0.11 0.11 0.10 0.10 0.10 0.09 0.09 0.09 0.08 0.08 0.08 0.08 0.08 0.08 0.08 0.08 0.08 0.08 0.07 0.07 0.07 0.08 0.08 0.07 0.07 0.06 0.07 0.07 0.07 0.07 0.06 0.06 0.06 0.06 0.06 0.06 0.06 0.06 0.06 0.07 0.07 0.07 0.07 0.08 0.08 0.08 0.08 0.08 0.08 0.09 0.09 0.09 0.09 0.09 0.09 0.09 0.09 0.09 0.09 0.09 0.09 0.09 0.10 0.10 0.10 0.11 0.11 0.11 0.11 0.11
0.13 0.13 0.12 0.12 0.12 0.12 0.12 0.11 0.11 0.11 0.11 0.11 0.11 0.10 0.10 0.10 0.10 0.10 0.10 0.09 0.09 0.08 0.08 0.08 0.08 0.08 0.08 0.08 0.08 0.08 0.08 0.07 0.07 0.07 0.07 0.07 0.07 0.07 0.07 0.07 0.07 0.07 0.07 0.07 0.07 0.07 0.07 0.06 0.06 0.06 0.06 0.06 0.06 0.06 0.06 0.07 0.07 0.07 0.07 0.08 0.08 0.08 0.08 0.08 0.09 0.09 0.09 0.09 0.09 0.08 0.08 0.09 0.09 0.09 0.09 0.09 0.09 0.09 0.09 0.10 0.10 0.10 0.10 0.11 0.11
Wind_Speed
25 26 26 27 27 28 28 29 29 30 31 31 32 33 33 34 34 34 35 35 35 35 35 35 36 36 36 37 37 37 38 39 39 40 41 42 43 44 44 44 44 45 44 43 43 43 42 43 43 42 42 42 42 42 41 41 41 41 43 44 45 45 45 44 44 46 47 46 47 47 47 46 45 45 44 44 44 43 43 43 43 43 43 42 41
26 26 27 27 28 28 29 29 30 31 31 32 32 33 33 34 34 35 35 35 35 36 36 36 36 36 36 37 37 37 37 38 39 39 40 41 42 43 44 44 44 45 45 44 44 43 43 43 43 43 43 43 43 42 42 41 41 41 41 43 45 45 45 44 43 44 45 46 47 46 46 47 47 47 46 46 45 45 44 44 44 44 44 43 43
26 27 27 27 28 29 29 30 30 31 32 32 33 33 33 34 34 34 35 35 36 36 36 36 36 37 37 37 37 37 37 38 38 39 39 40 41 42 43 44 44 45 45 45 45 44 44 43 43 43 43 43 44 44 43 42 41 41 41 42 43 45 46 46 44 43 43 44 46 46 46 47 47 48 48 48 48 47 46 46 45 45 45 44 44
27 27 28 28 29 29 30 30 31 31 32 32 33 33 33 33 34 34 35 35 36 36 36 36 37 37 37 37 37 37 37 37 37 37 38 39 40 41 42 43 44 45 46 46 46 45 45 44 44 44 44 44 44 44 44 43 42 42 42 42 42 44 46 47 46 45 44 43 45 45 45 47 48 48 49 49 49 49 48 48 47 46 46 45 45
28 28 29 29 30 30 31 31 31 32 32 32 33 33 33 34 34 34 35 35 36 36 37 37 37 37 37 37 37 37 37 36 36 37 38 38 38 39 41 42 43 44 45 46 47 47 46 45 45 45 44 44 44 44 44 44 44 43 42 42 41 43 45 47 47 46 46 45 45 45 44 45 48 48 48 49 50 51 50 50 49 48 48 47 47
29 29 30 30 30 31 31 31 32 32 32 33 33 33 34 34 34 35 35 36 36 37 37 37 37 37 37 37 37 37 37 36 36 37 38 38 38 39 40 41 41 42 44 45 47 47 48 47 46 46 46 45 45 44 44 45 45 44 44 42 41 42 43 46 47 47 48 47 47 47 46 45 45 46 47 48 49 51 52 52 51 51 50 49 49
29 30 31 31 31 31 32 32 32 32 33 33 33 34 34 34 35 35 36 36 37 37 37 37 38 38 38 38 38 38 37 37 37 38 38 38 38 38 39 40 40 41 42 44 45 47 48 48 48 47 47 46 46 45 45 45 45 45 45 45 43 42 42 44 47 47 48 48 48 48 49 48 46 46 47 47 48 50 52 52 53 53 52 51 51
30 30 31 32 32 32 32 32 33 33 33 33 34 34 34 35 35 36 36 36 37 37 37 38 38 38 38 38 38 38 38 38 38 38 38 38 38 38 38 39 39 40 41 42 44 45 47 49 49 48 48 48 47 47 46 46 46 46 46 46 45 44 43 43 45 46 47 48 48 49 49 49 48 48 48 47 47 49 51 53 53 53 53 53 52
31 31 32 32 32 33 33 33 33 33 34 34 34 35 35 35 35 36 36 36 37 37 38 38 38 39 39 38 39 39 39 39 39 39 38 38 38 38 38 38 38 39 40 41 42 43 45 47 49 49 49 49 48 48 47 47 47 47 47 47 46 45 44 43 44 45 47 47 47 48 49 49 49 49 49 49 48 48 50 53 54 54 54 55 54
32 32 33 33 33 33 34 34 34 34 34 34 35 35 35 35 36 36 36 37 37 38 38 39 39 39 39 39 40 40 40 40 40 39 38 38 38 37 37 37 37 38 39 40 41 42 43 45 48 49 50 50 50 49 49 48 48 48 48 48 48 47 46 45 44 44 46 47 47 48 49 48 48 49 50 50 50 49 49 50 53 54 55 55 56
32 33 33 34 34 34 34 34 34 34 34 35 35 35 36 36 36 36 37 37 38 38 39 39 39 39 39 40 40 41 41 41 40 40 39 39 38 38 37 36 36 37 37 38 40 41 42 43 45 48 50 50 50 50 50 49 49 49 49 49 49 49 48 47 46 45 45 46 47 48 48 48 47 48 49 49 50 51 50 49 50 53 55 55 55
32 33 34 34 34 34 35 35 35 35 35 35 36 36 36 36 36 37 37 38 38 39 39 40 40 40 40 40 41 41 41 41 41 41 40 40 39 38 37 37 36 36 37 37 38 40 42 43 44 46 48 50 51 51 51 51 51 50 50 50 50 49 49 49 48 47 46 46 47 48 48 48 48 47 48 49 49 51 51 50 49 50 53 54 54
32 33 34 34 34 35 35 36 36 35 35 36 36 36 36 36 37 37 38 38 39 39 40 40 40 40 41 41 41 41 41 41 41 41 40 40 40 39 38 38 37 36 37 37 37 39 41 43 44 45 47 49 51 51 52 52 52 52 51 52 51 51 50 49 49 49 48 47 47 47 49 49 49 48 47 47 48 49 50 51 50 49 50 51 52
33 33 34 34 35 35 36 36 36 36 36 36 36 37 37 37 37 38 38 39 39 39 40 40 40 41 41 41 42 42 42 42 41 41 41 40 40 40 40 39 38 38 37 37 38 38 40 42 44 45 47 48 51 52 52 52 53 53 53 53 53 53 52 51 50 50 50 49 48 48 49 49 50 49 48 47 47 48 49 50 50 50 49 50 50
34 34 34 35 35 36 36 37 37 37 37 37 37 37 38 38 38 39 39 39 40 40 40 41 41 41 42 42 42 42 42 42 42 42 41 41 41 41 41 40 40 39 38 38 38 39 39 41 43 45 46 48 50 52 53 53 53 53 53 54 54 54 54 53 52 51 51 50 50 49 49 50 50 50 50 49 48 48 49 49 49 50 50 50 51
34 35 35 36 36 37 37 37 38 38 38 38 38 38 38 39 39 39 40 40 40 41 41 41 41 42 42 43 43 43 43 43 43 42 42 42 42 42 42 42 41 41 40 40 39 39 39 40 41 43 45 47 49 51 52 54 54 54 54 54 55 55 55 55 54 53 52 52 51 50 50 50 51 51 51 51 50 50 50 51 51 51 51 51 52
36 36 36 37 37 37 38 38 39 38 38 39 39 39 39 40 40 41 41 41 41 42 42 42 42 42 43 43 43 43 44 44 43 43 43 43 43 43 43 42 42 42 41 41 40 39 39 40 40 42 43 45 48 50 52 53 54 55 55 55 55 55 56 56 56 55 55 53 52 51 51 50 51 51 51 51 51 51 51 51 52 53 53 53 53
37 37 37 38 38 38 38 39 39 39 39 40 40 40 40 41 41 42 42 42 42 42 43 43 43 43 43 43 44 44 44 44 43 43 43 44 44 43 43 43 42 42 42 41 41 40 40 40 40 41 43 44 47 49 51 52 53 54 55 56 56 56 56 57 57 57 57 56 55 53 52 51 51 52 52 51 51 52 52 52 52 53 53 54 54
38 38 38 39 39 39 39 39 40 40 40 40 41 41 41 41 42 43 43 43 43 43 43 43 43 44 44 44 44 45 45 44 44 44 44 44 44 44 44 43 43 42 42 41 41 41 41 41 40 41 42 44 46 47 49 51 52 53 55 55 56 56 56 56 57 57 58 57 57 56 54 52 52 52 52 52 52 52 53 53 54 53 53 54 54
39 39 39 40 39 39 39 40 40 40 40 41 41 41 41 42 43 43 43 44 43 43 44 44 44 44 44 45 45 45 45 45 44 44 44 44 44 44 44 43 43 42 42 42 42 42 42 41 41 41 42 43 44 46 47 49 51 52 53 54 55 55 56 57 57 57 58 58 58 58 57 55 53 53 52 52 52 53 53 54 54 53 53 53 53
39 39 39 40 40 40 40 41 40 40 41 41 41 41 42 43 43 44 44 44 44 44 44 44 44 45 45 46 46 46 45 45 44 44 44 44 44 43 43 43 42 42 42 43 43 43 42 42 42 41 41 41 43 44 46 47 49 51 53 54 55 55 56 57 57 58 58 58 59 59 59 58 56 54 53 53 52 53 54 54 54 53 53 53 52
39 39 40 41 41 41 41 41 40 41 42 42 42 42 43 43 44 45 45 44 44 44 44 44 45 45 45 46 46 46 45 44 44 44 44 44 43 43 43 43 42 43 43 43 43 43 43 42 41 41 41 40 41 42 44 46 48 50 51 53 54 55 56 57 58 58 58 58 59 59 60 59 59 57 56 54 53 53 54 54 54 54 54 53 53
39 40 41 42 42 42 41 41 41 42 43 42 42 42 43 44 45 45 45 45 45 44 44 45 45 45 46 46 46 46 45 44 44 44 44 43 43 43 43 43 43 43 44 44 43 43 42 41 41 40 40 39 40 41 42 45 46 48 50 52 53 54 55 57 57 58 58 58 59 59 59 60 60 59 59 57 55 54 54 54 55 55 54 54 54
40 41 42 42 42 42 42 42 42 43 43 43 43 43 44 45 45 45 45 45 45 45 44 45 45 45 46 46 46 45 44 44 44 44 43 43 42 42 43 43 43 44 43 43 43 42 41 40 40 39 39 39 39 39 41 43 45 47 49 50 52 53 55 56 57 58 58 58 59 59 59 59 60 60 60 60 59 57 55 55 55 55 55 55 54
41 42 42 43 43 43 43 43 43 44 44 43 44 44 45 45 46 46 46 45 45 45 45 45 45 46 46 46 46 45 44 44 43 43 42 42 42 43 44 44 44 43 42 41 41 40 39 39 39 38 38 38 38 38 39 41 44 45 47 49 51 52 54 55 57 57 58 58 59 59 59 59 59 60 60 60 60 59 57 56 55 55 55 55 55
42 43 43 43 43 44 44 44 44 44 44 44 44 45 45 46 46 46 46 45 45 45 45 45 45 46 46 46 45 44 43 42 42 42 42 42 43 44 44 44 43 42 41 40 40 39 38 38 38 37 37 37 37 38 38 40 42 44 46 48 49 51 53 54 56 57 57 58 58 59 59 59 59 59 59 59 59 59 59 58 57 56 56 56 57
43 43 43 44 44 44 45 45 45 45 45 45 45 45 46 46 46 46 46 45 45 45 45 45 45 46 46 46 45 43 42 41 41 42 42 43 44 44 44 43 41 40 40 39 39 38 38 38 37 36 36 36 37 37 38 39 40 43 45 46 48 50 51 53 55 56 57 57 58 58 59 59 60 59 59 59 60 60 60 60 59 58 57 57 57
44 44 44 45 45 45 45 45 45 45 45 45 45 46 46 46 46 46 45 45 45 44 44 45 45 46 46 45 44 42 41 41 42 42 43 43 44 43 43 41 40 39 39 39 38 37 37 36 36 35 36 36 36 37 38 38 39 41 43 45 46 48 50 51 53 55 56 56 57 57 58 59 59 60 59 59 59 60 60 60 59 59 58 57 57
45 45 45 45 46 46 46 46 46 45 46 46 46 46 46 46 46 46 45 45 44 44 44 45 45 46 45 44 43 42 41 41 42 42 42 43 43 42 40 39 39 39 39 38 37 36 35 35 35 36 36 36 37 37 38 38 39 40 42 43 45 46 48 49 51 53 54 55 56 57 57 58 59 59 60 60 60 59 60 59 59 59 59 59 58
46 46 46 46 46 47 46 46 46 46 46 46 46 46 46 46 46 45 45 44 44 44 44 45 45 46 45 44 42 41 41 41 42 42 42 42 41 40 39 38 38 38 38 37 35 34 34 34 35 36 36 37 37 37 38 38 39 40 41 42 43 44 45 47 49 51 53 54 55 56 57 57 58 59 59 60 60 60 60 60 60 60 60 60 60
47 47 47 47 47 47 47 47 47 46 46 46 46 46 46 46 45 45 44 44 44 44 45 45 45 45 44 42 41 41 41 41 41 41 41 40 40 39 38 38 38 38 37 34 33 32 33 34 35 36 36 37 37 37 38 38 39 39 40 41 42 43 44 45 47 48 50 52 54 55 56 56 57 58 58 59 60 61 61 61 61 61 61 61 61
48 47 47 47 48 48 47 47 47 47 46 46 46 46 46 46 45 44 44 44 44 44 45 45 45 44 43 42 41 41 41 41 41 40 40 39 39 38 38 38 38 37 35 33 32 33 33 34 35 36 36 36 36 37 37 37 37 38 39 40 41 42 43 43 45 46 48 50 51 53 54 55 56 57 57 58 58 59 60 61 62 62 63 63 62
49 48 48 48 48 48 48 48 47 47 47 46 46 46 46 45 44 44 44 44 44 44 44 44 44 43 42 41 41 41 41 40 40 39 39 38 38 38 38 38 37 35 34 33 33 33 34 34 35 35 35 35 35 35 36 36 36 36 37 39 40 41 41 42 43 44 46 47 49 51 53 54 55 56 56 57 57 58 59 60 61 62 62 63 64
50 50 49 49 49 48 48 48 48 47 47 46 46 45 45 44 44 44 44 44 44 44 44 43 43 42 42 42 41 41 40 40 39 39 38 38 38 38 37 37 35 34 34 34 33 33 34 34 34 34 34 33 33 34 34 35 35 35 36 37 39 40 40 41 42 43 44 46 47 49 51 53 54 54 55 55 56 57 58 59 60 61 61 62 63
50 50 50 49 49 49 49 48 48 47 46 45 45 44 44 44 44 44 44 44 43 43 43 43 43 42 42 41 41 40 40 39 39 38 38 38 37 37 37 36 34 34 34 34 34 34 34 33 33 33 32 32 32 33 34 34 34 35 35 36 37 38 39 40 41 42 43 44 45 47 49 51 53 54 55 56 56 57 58 59 59 60 60 61 62
50 50 50 49 49 49 48 48 47 46 45 44 44 44 44 44 44 44 44 43 43 43 43 43 43 42 42 41 40 39 39 39 39 38 38 37 37 37 36 35 34 34 34 34 34 34 34 33 33 32 32 31 32 32 33 33 33 34 34 34 35 36 37 38 39 40 41 43 44 45 47 49 51 53 54 56 57 57 58 59 59 59 60 60 61
50 50 50 50 49 48 47 47 46 45 44 44 44 44 44 44 44 44 43 43 43 43 43 43 43 42 41 40 39 39 39 39 38 38 37 37 37 36 36 35 35 35 35 34 34 34 34 33 33 32 32 31 31 31 32 32 32 33 33 33 34 34 35 36 37 39 40 41 42 44 45 47 48 50 52 53 55 56 57 58 59 60 60 60 60
51 50 50 49 48 47 47 46 45 44 44 44 44 44 44 44 43 43 42 42 43 43 43 43 42 41 40 39 39 39 39 38 38 38 37 37 36 36 36 35 35 35 35 35 35 34 34 33 33 32 32 31 31 31 31 31 32 32 32 32 33 33 34 35 36 37 38 39 40 42 44 45 46 47 49 51 53 54 55 57 58 59 60 61 60
51 50 49 48 48 47 46 45 45 44 44 44 44 44 44 44 43 42 42 43 43 43 43 42 41 40 39 39 38 38 38 38 38 37 37 36 36 36 36 35 35 35 35 35 34 34 34 33 33 32 32 31 31 31 31 31 31 32 32 32 32 33 33 34 35 36 37 37 39 40 42 43 44 45 47 48 50 52 54 55 56 57 59 59 59
50 50 49 48 47 47 46 45 44 44 44 44 44 44 43 43 43 42 42 43 43 43 42 42 41 39 39 38 38 38 38 38 37 37 37 37 37 36 36 36 35 35 35 35 34 34 34 33 33 32 32 31 31 31 31 31 31 31 31 31 32 32 33 33 34 35 35 36 37 38 39 41 43 44 45 46 48 50 51 53 54 55 56 57 57
50 49 49 48 47 46 45 45 44 44 44 44 44 44 43 43 43 43 43 43 43 42 42 41 40 39 38 38 38 38 38 38 37 37 37 37 37 36 36 36 36 35 35 35 35 34 34 33 33 32 32 32 31 31 31 31 31 31 31 31 31 31 32 32 33 34 35 36 36 37 38 39 41 42 43 44 46 47 48 50 51 53 54 55 55
49 49 48 47 46 46 45 45 44 44 44 44 44 43 43 43 43 43 44 43 43 42 41 40 39 39 38 38 38 38 38 38 38 38 38 37 37 37 37 37 36 36 36 36 36 35 34 33 32 32 32 31 31 31 30 30 30 30 31 31 31 31 32 32 33 34 35 35 35 35 35 36 37 39 40 42 43 45 46 47 49 51 52 53 54
49 48 48 47 46 45 45 44 44 44 44 44 43 43 43 43 43 43 43 42 42 41 40 40 39 39 39 39 39 39 39 38 38 38 38 38 38 38 38 37 37 36 36 36 35 35 34 33 32 32 31 31 30 30 30 30 30 30 30 31 31 31 32 32 33 33 33 33 33 33 34 35 36 37 39 40 42 43 45 46 47 49 50 52 53
49 48 47 46 45 45 44 43 43 43 43 43 43 43 43 43 43 42 42 41 41 40 40 39 39 39 39 39 39 39 39 39 39 39 39 39 39 38 38 37 36 36 36 36 36 35 34 33 32 31 31 31 30 30 30 29 29 29 30 30 31 31 31 32 32 31 31 31 32 32 33 35 36 37 38 39 40 41 42 44 45 46 47 48 49
48 47 46 45 44 44 43 42 42 42 42 42 42 42 42 42 41 41 40 40 40 39 39 39 39 39 39 39 39 39 39 39 39 39 39 39 39 38 37 37 36 36 36 36 36 35 34 33 32 31 31 31 30 29 29 29 29 29 29 29 30 31 31 31 31 31 31 32 32 33 33 34 36 37 37 38 38 39 40 41 42 43 44 45 46
48 47 45 45 44 43 42 41 41 41 40 40 40 40 41 41 40 40 40 39 39 39 39 39 39 39 39 40 40 40 40 40 40 40 40 39 39 38 37 37 37 37 36 36 36 35 34 33 32 31 31 30 30 29 29 29 29 28 28 29 30 30 31 31 31 31 31 31 32 33 34 35 35 36 37 37 37 38 39 40 41 41 42 43 44
47 46 45 44 42 41 41 40 39 39 39 39 39 39 40 40 40 39 39 39 39 40 40 39 40 40 40 40 40 40 40 40 40 40 40 40 39 38 38 38 37 37 37 36 35 35 34 33 32 31 30 30 29 29 29 28 28 28 28 28 29 29 30 30 30 30 30 31 32 33 34 34 35 36 36 37 37 38 38 38 39 39 39 40 41
47 46 44 42 41 40 39 39 38 38 38 39 39 39 40 40 40 40 40 40 40 40 40 40 40 41 40 40 40 40 40 40 40 40 40 40 39 39 38 38 38 37 37 36 35 34 33 33 32 31 30 30 30 29 28 28 28 28 28 28 28 29 29 29 29 30 30 31 31 32 32 33 33 33 34 34 35 36 36 37 37 37 38 39 40
46 44 42 41 40 39 39 39 39 39 39 40 40 40 40 40 40 40 40 40 40 41 41 41 41 41 41 41 41 41 41 41 41 41 40 40 40 39 39 38 38 37 37 36 35 34 33 32 32 31 31 31 30 29 28 28 29 30 30 29 29 29 30 30 31 31 31 30 30 30 31 31 31 31 32 32 33 34 35 35 36 37 37 38 38
45 43 41 40 39 39 39 39 40 40 40 40 40 41 41 40 40 41 40 41 41 41 41 41 41 41 41 41 41 41 42 41 41 41 41 40 40 40 39 39 38 37 37 36 35 34 34 33 33 32 32 31 31 30 30 30 31 31 31 30 30 31 31 31 31 31 31 30 30 30 30 30 30 30 31 32 32 33 33 34 34 35 36 36 37
44 42 41 40 40 40 40 40 40 41 41 41 41 41 41 41 41 41 41 41 42 42 42 42 42 42 42 42 42 42 42 42 42 41 40 40 39 39 39 39 38 37 36 36 36 35 35 34 33 33 32 32 32 32 32 32 32 31 31 32 32 31 31 31 31 30 30 30 29 29 29 29 30 30 31 31 31 32 32 33 33 33 34 35 35
Wind_Direction
304 305 305 306 306 306 307 308 308 309 310 311 313 314 314 314 315 315 315 315 315 314 313 312 311 310 308 307 305 303 300 297 294 291 289 285 283 280 277 275 273 272 270 268 267 266 265 264 262 260 258 256 254 253 252 251 251 250 248 246 244 243 242 241 241 239 236 236 236 235 235 234 234 234 234 234 233 232 231 230 230 229 229 228 227
304 305 305 306 306 306 307 307 308 308 310 311 312 313 313 314 314 314 314 315 315 315 314 313 312 311 310 308 307 305 302 300 297 294 291 287 284 281 278 276 273 271 270 269 267 266 265 263 262 260 258 256 254 253 252 251 250 249 249 246 243 242 241 241 241 239 236 235 234 234 235 235 234 234 234 234 233 232 231 230 229 229 228 227 227
303 304 305 306 306 307 307 307 307 308 309 310 310 311 312 312 313 313 314 314 314 315 314 313 313 312 311 309 308 306 304 302 300 297 294 291 287 283 280 277 274 271 269 268 267 266 265 263 262 260 259 256 254 253 252 250 249 249 248 247 245 242 240 240 240 238 237 236 234 233 234 234 234 234 234 234 233 232 231 230 230 229 228 227 227
303 304 305 306 307 307 307 307 307 308 308 309 309 310 311 311 312 312 313 313 314 314 314 313 313 312 311 310 309 308 306 305 303 300 298 295 291 286 282 279 275 271 268 267 266 265 264 263 262 260 259 257 254 253 252 250 249 249 248 247 246 244 240 238 238 238 237 237 234 233 234 233 233 233 233 233 232 232 231 230 230 229 228 228 227
302 303 304 305 306 306 307 307 306 306 307 307 309 309 310 310 311 312 312 313 314 314 314 313 313 312 312 311 310 309 308 307 305 303 301 298 294 290 286 282 278 274 269 266 264 263 263 262 261 260 258 257 255 253 251 250 248 247 247 247 245 244 242 239 237 238 238 237 235 235 235 234 234 234 233 233 232 231 231 230 229 229 229 229 228
300 301 302 303 304 305 306 305 305 305 305 307 308 309 309 310 310 311 312 312 313 313 313 313 313 312 312 311 310 310 308 308 307 305 304 301 297 293 289 284 280 276 272 268 264 263 262 260 260 259 258 257 255 253 252 250 248 247 246 245 244 243 242 240 239 238 237 237 237 236 235 235 236 234 233 233 232 232 231 230 229 229 229 229 229
299 299 300 302 303 304 304 304 304 304 305 306 307 308 308 309 310 310 311 311 312 312 312 312 312 312 311 311 310 309 308 308 307 306 305 303 300 296 292 287 283 278 274 270 266 263 261 260 259 258 257 256 255 254 252 250 249 248 246 245 244 243 242 241 240 239 237 237 238 237 236 236 236 235 233 233 232 231 231 230 230 229 229 229 229
298 299 299 300 301 302 303 303 303 304 305 306 306 307 308 308 309 310 310 311 311 311 311 312 312 311 311 310 310 309 308 308 307 306 305 304 302 299 295 291 286 281 277 272 269 265 262 260 259 258 256 255 254 253 252 251 249 248 247 246 244 243 242 241 240 239 237 237 239 239 237 236 236 235 234 234 233 231 230 230 230 230 229 229 229
297 298 299 300 301 302 302 303 303 304 304 305 306 306 307 308 308 309 309 310 310 311 311 311 311 311 310 309 309 309 308 308 307 306 305 305 303 301 298 294 290 284 279 274 271 267 263 261 259 257 256 255 253 252 252 251 250 249 247 246 245 243 242 241 240 239 238 237 238 238 238 237 236 235 234 234 234 232 231 230 230 230 230 230 229
297 297 298 299 300 301 302 303 303 304 304 304 305 306 306 307 307 308 309 309 310 310 311 311 311 310 309 309 309 309 308 308 307 306 305 304 303 302 299 296 292 288 283 277 273 269 266 262 259 257 256 254 253 252 251 250 250 249 247 246 245 244 243 242 240 239 238 237 237 236 236 236 236 235 234 234 234 233 232 230 229 229 230 231 230
298 297 297 298 299 300 302 303 303 304 304 304 305 305 305 306 306 307 308 309 310 310 311 311 311 310 309 309 308 308 308 307 307 306 305 304 303 302 300 298 294 290 286 281 275 271 268 265 261 258 256 254 253 252 251 250 249 248 247 246 245 244 243 243 242 240 239 238 236 235 234 234 234 234 234 235 234 233 232 232 230 229 230 230 230
299 298 298 297 298 299 300 301 303 303 303 304 304 304 305 305 305 306 307 308 309 310 310 311 310 310 309 309 308 308 307 307 306 305 304 303 303 301 300 298 296 292 288 284 279 274 270 266 263 260 256 254 253 252 251 250 249 248 247 246 245 244 244 243 243 242 241 240 237 235 234 233 233 233 234 234 234 233 232 232 232 231 230 230 230
300 300 299 298 298 298 299 300 302 303 303 303 303 304 304 304 304 305 306 307 308 309 310 310 310 309 309 308 308 307 307 306 305 304 303 303 302 301 300 298 297 294 290 287 282 278 273 269 265 262 258 255 253 252 251 250 249 248 247 246 245 244 243 243 243 243 242 241 239 236 235 234 233 233 233 233 233 233 232 231 232 231 230 230 229
302 301 300 298 298 298 299 300 301 302 303 303 303 303 303 303 303 304 305 306 307 308 309 309 309 309 308 308 307 307 306 306 305 304 303 302 301 300 299 298 297 295 292 288 285 281 277 272 268 264 261 257 255 252 251 250 249 248 246 246 244 243 242 242 241 241 241 240 240 238 236 235 234 233 232 232 232 232 231 230 230 230 230 230 230
303 302 301 299 298 298 299 300 301 301 302 303 302 302 302 303 303 303 304 305 306 307 307 308 308 308 308 307 307 306 306 305 304 303 302 301 300 299 299 298 296 295 292 289 287 284 280 276 271 267 263 259 256 254 252 250 249 247 246 245 244 243 242 241 240 240 240 240 239 239 237 236 235 234 233 232 231 231 231 230 229 230 231 232 231
303 303 302 300 298 298 298 299 300 301 302 302 302 302 302 302 302 302 303 304 305 305 306 306 307 307 307 307 306 306 305 305 304 303 302 301 300 299 298 297 295 294 293 290 288 285 282 279 274 269 265 261 258 255 253 250 248 247 246 245 244 244 242 241 240 239 239 239 238 238 238 237 236 235 234 233 233 232 232 232 231 231 232 232 232
303 302 302 301 300 298 298 299 300 301 302 302 302 302 301 301 302 302 303 304 304 305 305 305 305 305 306 306 306 305 305 304 303 302 301 300 300 299 298 296 295 293 292 290 288 285 283 280 277 272 267 263 260 256 254 251 249 247 246 244 244 243 243 242 240 239 239 238 238 237 237 237 237 236 235 235 235 234 233 232 232 232 232 233 232
302 302 302 302 300 299 298 299 299 300 301 302 302 302 301 301 302 302 303 303 304 304 304 304 304 305 305 305 305 305 304 303 302 301 301 300 300 298 297 296 294 293 291 289 288 285 283 281 278 274 270 265 262 258 255 252 249 247 245 244 243 242 242 242 241 240 239 239 238 237 237 237 237 237 236 235 235 236 235 233 232 232 233 232 232
301 301 301 302 301 300 299 299 299 299 301 302 302 302 301 301 302 302 303 303 303 303 303 304 304 304 304 305 305 305 304 303 302 301 301 300 299 298 297 295 294 292 290 289 287 285 284 282 280 276 272 268 263 259 256 252 250 247 245 244 243 242 241 241 241 240 240 239 238 238 237 237 237 237 236 236 236 236 235 235 234 233 233 233 233
300 301 301 301 301 300 300 300 299 299 301 302 302 301 301 301 302 302 302 303 303 302 303 303 303 303 304 304 305 304 304 303 302 301 301 300 299 298 296 295 293 292 290 289 287 285 283 282 280 278 274 269 264 260 256 253 250 248 246 244 243 242 241 240 240 240 240 239 239 238 238 237 236 236 236 236 236 236 235 235 235 234 234 233 233
300 301 301 300 301 300 300 300 300 300 301 302 302 301 301 301 301 302 302 302 302 302 302 302 302 303 303 304 304 304 303 302 301 301 301 300 299 298 297 295 294 292 291 289 287 285 283 282 281 279 275 270 266 261 257 254 251 248 246 245 243 242 241 240 240 240 240 240 239 239 239 238 237 236 236 237 237 236 236 235 235 234 234 233 233
300 300 300 300 300 300 300 301 300 300 301 301 301 301 301 301 301 302 302 301 301 301 301 302 302 302 303 303 304 303 302 301 301 301 301 300 300 299 297 296 294 293 291 289 287 285 284 282 281 279 275 271 267 262 258 254 252 249 247 245 244 243 242 241 240 239 239 240 239 239 239 239 238 237 236 236 237 237 236 236 235 235 234 233 233
300 300 300 300 300 300 300 300 300 300 300 300 300 300 300 301 301 301 301 301 301 301 301 301 301 302 303 303 303 303 302 301 301 301 301 300 300 299 298 296 294 293 291 290 288 286 284 282 280 278 276 272 268 264 259 255 253 250 248 245 244 243 242 241 241 240 239 239 239 239 239 239 238 237 237 236 237 237 237 236 236 236 235 235 234
299 300 300 300 300 300 300 300 300 299 300 300 300 300 300 301 301 301 301 301 300 300 300 300 301 302 303 303 303 302 301 301 301 301 301 301 301 300 299 297 295 293 292 290 288 286 283 281 279 278 276 272 269 265 260 256 253 251 249 247 245 243 242 242 241 240 240 239 239 239 239 238 238 238 237 237 237 237 236 236 236 236 236 236 235
299 299 299 300 299 299 299 299 299 299 300 300 300 300 300 301 301 301 301 301 300 300 299 300 301 302 303 303 302 301 301 301 301 301 301 302 302 301 300 299 296 294 292 290 288 286 283 280 279 277 275 273 269 266 262 258 254 252 251 248 246 244 243 242 242 241 240 240 239 238 238 238 238 237 237 237 236 236 236 236 236 236 236 236 236
298 299 299 299 299 299 299 299 299 299 299 299 300 300 301 301 301 301 301 300 300 299 299 299 301 302 303 303 302 301 300 300 301 301 302 302 303 302 301 299 297 294 292 290 288 286 283 280 279 277 275 273 270 267 264 260 256 253 251 250 248 245 244 242 242 241 241 240 239 239 238 237 237 237 237 236 236 236 236 236 236 236 236 236 236
299 299 299 300 299 299 299 299 299 299 299 299 300 300 301 301 301 301 300 300 299 299 299 300 301 302 303 302 301 300 300 300 301 301 302 303 303 303 302 300 297 295 293 292 289 286 283 280 278 276 275 273 270 268 266 263 258 254 252 250 249 247 245 243 242 242 241 240 239 239 238 237 237 237 237 237 236 236 237 236 236 236 236 236 236
299 300 299 299 299 299 299 299 299 299 299 299 299 300 300 301 301 301 300 299 299 298 299 300 301 302 302 302 301 300 300 300 301 302 302 303 303 303 302 300 298 296 295 293 291 287 283 280 277 276 275 274 271 269 267 265 261 257 253 251 250 248 246 244 243 242 241 240 240 239 238 238 237 237 237 237 237 236 236 236 236 235 235 235 235
300 300 300 300 300 300 300 300 300 299 299 299 299 300 300 300 300 300 300 299 298 298 299 300 301 302 302 301 300 299 299 300 301 302 302 303 303 303 302 300 299 298 297 295 291 287 282 279 278 277 276 274 272 269 268 266 263 258 254 251 250 249 247 245 243 242 241 240 240 239 239 238 238 238 237 237 237 236 236 236 235 235 235 235 235
301 300 300 300 301 301 300 300 300 300 299 299 299 300 300 300 300 300 299 299 299 299 300 300 301 302 301 300 299 299 299 300 301 301 302 302 302 302 302 301 300 299 298 296 292 286 283 281 280 279 277 275 272 270 268 266 263 259 256 252 250 249 248 247 245 243 241 240 240 240 239 239 238 238 238 238 238 237 237 236 235 235 235 236 236
302 300 300 300 301 301 301 300 300 300 300 300 299 299 300 300 300 299 299 299 299 299 300 301 301 301 301 300 299 298 299 300 301 301 301 302 302 302 302 302 301 300 299 296 292 287 285 283 281 280 279 276 274 271 269 266 263 260 256 253 250 249 248 247 246 244 242 241 240 240 240 239 239 238 238 238 238 238 238 237 236 236 235 236 236
302 301 300 301 301 301 301 300 301 300 300 300 300 300 300 300 300 299 299 299 299 300 300 301 301 301 300 299 298 298 298 299 300 300 301 301 301 301 302 302 301 300 298 295 292 289 287 285 284 282 280 278 275 272 269 266 263 260 257 254 251 249 248 247 246 245 243 242 240 239 239 239 239 239 238 238 238 238 238 238 237 237 236 236 236
302 301 301 301 301 301 300 300 301 300 300 300 300 300 300 300 300 300 300 300 300 300 300 300 300 300 299 298 297 297 298 299 300 300 300 300 300 300 301 301 301 300 297 295 293 291 288 287 286 284 282 279 275 272 269 267 264 261 257 255 252 250 249 247 246 245 244 243 241 240 239 239 239 239 239 239 238 238 238 238 238 238 237 237 237
303 302 301 301 301 300 300 300 300 300 300 300 300 300 300 300 300 300 300 300 300 300 300 300 300 299 299 298 297 297 298 299 299 299 299 299 299 300 300 301 301 299 298 296 294 292 290 288 287 286 283 279 275 272 270 267 264 262 259 257 254 252 250 248 247 246 245 244 242 241 240 239 239 239 238 238 238 238 238 238 238 238 238 238 237
303 302 301 301 300 300 300 300 300 300 300 300 300 300 300 300 300 300 300 300 300 300 300 300 300 299 298 297 296 297 297 298 299 299 299 299 299 299 300 300 299 298 298 296 294 292 291 289 288 286 284 280 276 272 270 268 265 263 261 259 256 253 251 249 247 246 245 244 243 242 241 240 239 239 238 238 238 239 239 239 239 239 238 238 238
304 303 302 301 301 300 300 300 300 300 300 300 299 300 300 300 300 300 300 300 300 300 300 300 299 298 298 297 296 296 297 298 299 298 298 298 298 298 299 299 298 297 297 297 295 293 291 289 288 286 284 281 277 273 271 268 266 263 262 260 257 254 252 250 248 247 245 244 243 243 242 241 241 240 240 239 239 239 239 239 239 239 239 238 238
304 303 303 302 302 301 301 301 300 300 300 299 299 300 300 300 300 299 299 299 299 300 300 300 299 298 297 296 295 296 297 298 298 297 297 297 298 298 298 298 297 297 297 296 296 294 291 289 287 285 284 281 278 274 271 269 266 264 262 261 258 255 253 251 249 248 246 245 244 243 243 242 242 241 240 240 239 239 239 239 239 239 239 239 239
305 304 304 303 302 302 301 301 300 300 299 299 299 299 299 299 299 299 299 299 299 300 300 299 299 297 296 295 295 296 296 297 297 297 297 297 297 297 298 297 296 296 296 296 296 294 291 288 286 284 283 281 278 275 272 269 267 265 263 261 259 256 253 251 250 248 247 246 245 244 243 243 242 242 241 240 240 239 239 239 239 239 239 239 239
306 305 304 304 303 302 302 301 300 299 299 299 299 299 299 299 299 299 299 299 299 300 300 299 298 297 295 295 295 295 296 296 296 296 296 296 296 297 297 296 296 296 296 296 296 294 292 289 286 283 282 280 277 275 272 270 268 265 263 261 258 256 254 252 250 249 247 246 245 245 244 243 242 242 242 241 241 240 240 239 239 240 240 240 240
307 306 305 304 303 302 301 300 300 299 299 299 299 299 299 298 298 299 299 299 300 300 299 298 297 296 295 295 295 295 295 295 295 295 295 295 296 296 296 296 295 295 296 296 295 294 292 289 286 283 281 279 276 274 272 271 269 266 263 261 259 256 255 253 251 249 248 247 246 245 244 243 243 242 242 242 242 242 241 240 240 240 240 240 241
308 307 306 305 303 302 301 300 300 300 299 299 299 299 298 298 298 299 299 299 300 299 298 297 296 296 295 295 295 295 294 295 295 295 295 295 295 295 295 295 295 295 295 295 295 294 292 289 286 282 280 278 276 274 272 271 269 266 263 261 258 256 255 253 252 250 249 247 246 246 245 244 244 243 242 242 242 242 242 242 241 240 240 241 241
309 308 307 305 304 303 302 301 300 300 299 299 299 298 298 298 298 299 299 299 300 299 298 297 296 295 295 295 295 295 294 294 295 295 294 294 294 294 294 294 294 294 294 294 294 294 292 289 285 282 279 277 275 273 271 270 268 266 263 260 258 256 255 253 252 251 250 248 247 246 245 245 244 243 243 242 242 242 242 242 242 242 242 242 242
310 309 307 306 305 304 303 302 301 300 300 300 299 299 299 299 299 299 299 300 299 298 298 297 296 295 294 294 295 294 294 294 294 294 294 294 294 294 293 293 293 293 293 293 293 293 291 289 286 282 279 277 275 272 270 268 267 265 263 260 258 256 254 253 252 252 251 250 248 247 247 246 245 244 244 243 243 242 242 242 243 243 244 244 244
312 310 309 307 306 305 304 302 301 301 300 300 300 299 300 299 299 300 300 300 299 299 298 297 296 295 294 294 295 295 294 294 294 294 293 294 293 293 293 292 292 292 292 293 293 292 291 289 286 282 280 277 275 273 270 267 266 265 263 259 257 255 255 254 254 253 252 251 249 248 248 248 247 246 245 245 244 244 243 243 243 243 244 244 244
313 312 311 309 308 306 305 303 302 302 301 301 301 301 301 300 301 301 301 300 300 299 298 297 296 295 295 295 295 295 294 294 294 294 293 293 293 292 292 291 291 291 291 292 292 291 290 288 285 282 279 278 276 273 269 267 265 264 262 259 257 256 256 255 254 253 252 250 250 249 249 249 248 247 247 246 245 244 244 244 244 244 244 245 245
314 313 312 311 309 307 306 305 304 303 303 303 303 303 302 302 302 302 301 301 300 299 298 297 296 296 295 295 295 295 294 294 294 293 293 293 292 291 291 290 290 290 291 291 290 290 288 286 284 281 279 277 275 272 269 266 264 262 261 260 259 257 256 255 254 253 251 251 250 250 250 249 248 247 246 246 245 245 245 245 245 245 245 246 246
315 314 313 312 310 309 307 306 305 305 305 305 305 304 304 304 303 303 302 301 300 299 298 298 297 296 296 296 295 295 295 294 294 293 293 292 291 290 290 290 289 290 290 289 289 288 287 285 283 281 279 276 274 272 270 266 263 262 262 261 260 258 256 255 253 252 251 251 251 251 250 249 248 247 246 245 245 245 245 245 245 245 246 246 246
316 315 314 313 311 310 309 308 307 307 307 307 306 306 305 305 304 303 303 302 301 300 299 298 297 297 296 296 296 295 295 294 294 293 293 292 291 289 289 289 288 288 288 288 287 286 285 283 281 280 278 276 274 272 268 265 262 262 262 261 260 259 256 254 253 253 252 252 252 251 250 248 247 246 245 244 244 244 244 245 245 246 247 248 248
317 316 315 314 312 311 310 309 309 309 308 308 307 307 306 306 305 304 303 302 301 300 299 298 298 297 297 296 296 295 295 294 294 293 292 291 290 289 288 288 288 287 286 286 285 284 283 282 279 277 276 274 272 270 267 265 264 264 262 261 260 259 256 254 254 255 254 252 251 249 247 246 245 244 244 244 244 244 244 245 246 246 248 248 249
318 317 316 314 313 312 311 310 310 310 309 309 308 307 307 306 306 305 304 303 302 301 300 299 298 298 297 297 297 296 295 294 294 293 292 290 289 288 287 287 287 286 285 284 284 282 281 280 278 276 274 272 271 269 267 266 265 264 262 261 260 259 257 256 255 255 253 251 249 248 246 245 245 245 245 245 245 244 245 245 246 247 247 248 249
318 317 316 315 314 313 312 311 311 311 310 309 308 308 307 307 306 305 304 303 302 301 300 299 299 298 298 297 297 296 295 294 294 292 291 290 289 288 286 285 285 285 284 283 282 281 280 279 277 275 273 271 270 268 267 266 265 263 261 260 259 258 257 255 254 252 250 248 248 247 246 246 246 246 246 246 246 245 245 246 247 247 248 249 249